Location: Murdochville
(48.9591°N, 65.4950°W)
Time: 21:50:12
(UTC-04:00)

Envisat - Pass Details

Date: 26 April 2026
Orbit: 761 x 762 km, 98.4° (Epoch: 15 May)

Event Time Altitude Azimuth Distance (km) Brightness Sun altitude
Rises 03:38:13 0° 10° (N) 3,235 7.1 -13.7°
Reaches altitude 10° 03:40:34 10° 6° (N) 2,305 6.2 -13.4°
Maximum altitude 03:45:30 55° 290° (WNW) 917 3.2 -12.8°
Enters shadow 03:49:23 16° 217° (SW) 1,895 4.4 -12.3°
